Starlink 6328

operational
NORAD ID: 56523 Int'l Des: 2023-065 Owner: SPXS Country: US Constellation: starlink
LEOCIRCULAR

关于 Starlink 6328

正在加载描述...

实时位置

正在加载3D地球...

即将过境

高度历史

Altitude vs Time

uPlot chart will show altitude changes over time

两行轨道根数

1 56523U 23065W 26037.01007427 .00001122 00000-0 98074-4 0 9994
2 56523 43.0022 22.0996 0001123 266.7938 93.2776 15.02539164151861
Epoch: Feb 6, 2026 • Age: 28 hours

当前状态

高度 570.1 km
速度 7.58 km/s
星下点 -39.30°S, 107.65°E
发射日期 May 14, 2023
运行时间 2.7 years
类型 internet

技术详情

分类 Payload
质量 305.00 kg
干质量 290.00 kg
总质量 305.00 kg
长度 0.20 m
直径 2.80 m
跨度 9.00 m
形状 Box + pan
制造商 SPXS
平台类型 Starlink
阶段状态 In Orbit
所有者/国家 SPXS/US

大型星座

Loading constellations...